Time,TemperatureF,DewpointF,PressureIn,WindDirection,WindDirectionDegrees,WindSpeedMPH,WindSpeedGustMPH,Humidity,HourlyPrecipIn,Conditions,Clouds,dailyrainin,SoftwareType,DateUTC
2013-08-17 08:47:00,60.6,59.0,30.28,ENE,68,0.0,-999.0,95,-99.99,,,0.00,weatherlink.com 1.10,2013-08-17 12:47:00,
2013-08-17 08:59:00,61.9,60.0,30.28,ENE,68,0.0,-999.0,93,-99.99,,,0.00,weatherlink.com 1.10,2013-08-17 12:59:00,
2013-08-17 09:14:00,63.8,61.0,30.28,NE,51,0.0,-999.0,89,-99.99,,,0.00,weatherlink.com 1.10,2013-08-17 13:14:00,
2013-08-17 09:30:00,65.9,61.0,30.29,ENE,62,0.0,-999.0,85,-99.99,,,0.00,weatherlink.com 1.10,2013-08-17 13:30:00,
2013-08-17 09:45:00,68.1,62.0,30.29,ENE,65,0.0,-999.0,82,-99.99,,,0.00,weatherlink.com 1.10,2013-08-17 13:45:00,
2013-08-17 10:00:00,69.9,62.0,30.29,ENE,65,0.0,-999.0,77,-99.99,,,0.00,weatherlink.com 1.10,2013-08-17 14:00:00,
2013-08-17 10:15:00,72.0,64.0,30.29,ENE,65,0.0,-999.0,75,-99.99,,,0.00,weatherlink.com 1.10,2013-08-17 14:15:00,
2013-08-17 10:30:00,73.7,64.0,30.29,SSE,167,0.0,-999.0,71,-99.99,,,0.00,weatherlink.com 1.10,2013-08-17 14:30:00,
2013-08-17 10:45:00,74.7,63.0,30.29,NE,41,0.0,-999.0,68,-99.99,,,0.00,weatherlink.com 1.10,2013-08-17 14:45:00,
2013-08-17 11:00:00,75.7,64.0,30.29,ESE,110,0.0,-999.0,67,-99.99,,,0.00,weatherlink.com 1.10,2013-08-17 15:00:00,
2013-08-17 11:15:00,76.9,63.0,30.28,NE,45,0.0,-999.0,62,-99.99,,,0.00,weatherlink.com 1.10,2013-08-17 15:15:00,
2013-08-17 11:31:00,78.6,62.0,30.27,ENE,63,0.0,-999.0,57,-99.99,,,0.00,weatherlink.com 1.10,2013-08-17 15:31:00,
2013-08-17 11:46:00,78.8,60.0,30.28,NE,55,0.0,-999.0,53,-99.99,,,0.00,weatherlink.com 1.10,2013-08-17 15:46:00,
2013-08-17 12:01:00,78.4,61.0,30.27,East,82,0.0,-999.0,55,-99.99,,,0.00,weatherlink.com 1.10,2013-08-17 16:01:00,
2013-08-17 12:16:00,78.9,61.0,30.27,ENE,59,0.0,-999.0,54,-99.99,,,0.00,weatherlink.com 1.10,2013-08-17 16:16:00,
2013-08-17 12:31:00,79.9,60.0,30.27,NW,322,0.0,-999.0,51,-99.99,,,0.00,weatherlink.com 1.10,2013-08-17 16:31:00,
2013-08-17 12:46:00,79.6,60.0,30.27,NW,312,0.0,-999.0,52,-99.99,,,0.00,weatherlink.com 1.10,2013-08-17 16:46:00,
2013-08-17 13:01:00,79.8,59.0,30.27,NW,312,0.0,-999.0,50,-99.99,,,0.00,weatherlink.com 1.10,2013-08-17 17:01:00,
2013-08-17 13:16:00,80.8,60.0,30.26,NW,312,0.0,-999.0,49,-99.99,,,0.00,weatherlink.com 1.10,2013-08-17 17:16:00,
2013-08-17 13:31:00,82.1,59.0,30.26,NNW,333,0.0,-999.0,46,-99.99,,,0.00,weatherlink.com 1.10,2013-08-17 17:31:00,
2013-08-17 13:46:00,82.0,60.0,30.27,NNE,16,0.0,-999.0,47,-99.99,,,0.00,weatherlink.com 1.10,2013-08-17 17:46:00,
2013-08-17 14:02:00,81.3,60.0,30.26,ENE,68,0.0,-999.0,49,-99.99,,,0.00,weatherlink.com 1.10,2013-08-17 18:02:00,
2013-08-17 14:17:00,81.8,60.0,30.25,ENE,69,0.0,-999.0,47,-99.99,,,0.00,weatherlink.com 1.10,2013-08-17 18:17:00,
2013-08-17 14:32:00,81.3,58.0,30.25,East,94,0.0,-999.0,45,-99.99,,,0.00,weatherlink.com 1.10,2013-08-17 18:32:00,
2013-08-17 14:47:00,81.8,58.0,30.25,East,94,0.0,-999.0,45,-99.99,,,0.00,weatherlink.com 1.10,2013-08-17 18:47:00,
2013-08-17 15:02:00,80.9,58.0,30.25,ENE,77,0.0,-999.0,46,-99.99,,,0.00,weatherlink.com 1.10,2013-08-17 19:02:00,
2013-08-17 15:17:00,80.1,59.0,30.24,East,82,0.0,-999.0,48,-99.99,,,0.00,weatherlink.com 1.10,2013-08-17 19:17:00,
2013-08-17 15:32:00,79.9,60.0,30.24,East,82,0.0,-999.0,50,-99.99,,,0.00,weatherlink.com 1.10,2013-08-17 19:32:00,
2013-08-17 15:47:00,79.6,61.0,30.24,West,267,0.0,-999.0,53,-99.99,,,0.00,weatherlink.com 1.10,2013-08-17 19:47:00,
2013-08-17 16:02:00,78.9,62.0,30.24,West,267,0.0,-999.0,56,-99.99,,,0.00,weatherlink.com 1.10,2013-08-17 20:02:00,
2013-08-17 16:17:00,77.7,62.0,30.24,West,267,0.0,-999.0,59,-99.99,,,0.00,weatherlink.com 1.10,2013-08-17 20:17:00,
2013-08-17 16:32:00,76.6,63.0,30.24,West,267,0.0,-999.0,64,-99.99,,,0.00,weatherlink.com 1.10,2013-08-17 20:32:00,
2013-08-17 16:47:00,76.3,64.0,30.24,West,267,0.0,-999.0,65,-99.99,,,0.00,weatherlink.com 1.10,2013-08-17 20:47:00,
2013-08-17 17:02:00,76.2,64.0,30.25,West,267,0.0,-999.0,65,-99.99,,,0.00,weatherlink.com 1.10,2013-08-17 21:02:00,
2013-08-17 17:17:00,76.3,63.0,30.25,West,263,0.0,-999.0,63,-99.99,,,0.00,weatherlink.com 1.10,2013-08-17 21:17:00,
2013-08-17 17:33:00,76.1,63.0,30.24,West,263,0.0,-999.0,65,-99.99,,,0.00,weatherlink.com 1.10,2013-08-17 21:33:00,
2013-08-17 17:48:00,76.2,65.0,30.24,West,263,0.0,-999.0,68,-99.99,,,0.00,weatherlink.com 1.10,2013-08-17 21:48:00,
2013-08-17 18:03:00,76.5,66.0,30.24,West,263,0.0,-999.0,70,-99.99,,,0.00,weatherlink.com 1.10,2013-08-17 22:03:00,
2013-08-17 18:18:00,76.4,66.0,30.24,West,263,0.0,-999.0,69,-99.99,,,0.00,weatherlink.com 1.10,2013-08-17 22:18:00,
2013-08-17 18:33:00,76.1,66.0,30.25,West,263,0.0,-999.0,72,-99.99,,,0.00,weatherlink.com 1.10,2013-08-17 22:33:00,
2013-08-17 18:48:00,75.4,65.0,30.24,West,263,0.0,-999.0,70,-99.99,,,0.00,weatherlink.com 1.10,2013-08-17 22:48:00,
2013-08-17 19:03:00,74.6,66.0,30.25,West,263,0.0,-999.0,75,-99.99,,,0.00,weatherlink.com 1.10,2013-08-17 23:03:00,
2013-08-17 19:18:00,73.7,66.0,30.25,West,263,0.0,-999.0,78,-99.99,,,0.00,weatherlink.com 1.10,2013-08-17 23:18:00,
2013-08-17 19:33:00,72.9,66.0,30.25,West,263,0.0,-999.0,80,-99.99,,,0.00,weatherlink.com 1.10,2013-08-17 23:33:00,
2013-08-17 19:48:00,72.2,66.0,30.25,West,263,0.0,-999.0,81,-99.99,,,0.00,weatherlink.com 1.10,2013-08-17 23:48:00,
2013-08-17 20:03:00,71.2,66.0,30.25,West,263,0.0,-999.0,83,-99.99,,,0.00,weatherlink.com 1.10,2013-08-18 00:03:00,
2013-08-17 20:18:00,70.3,65.0,30.25,West,263,0.0,-999.0,84,-99.99,,,0.00,weatherlink.com 1.10,2013-08-18 00:18:00,
2013-08-17 20:33:00,69.5,65.0,30.26,West,263,0.0,-999.0,85,-99.99,,,0.00,weatherlink.com 1.10,2013-08-18 00:33:00,
2013-08-17 20:49:00,68.7,64.0,30.26,West,263,0.0,-999.0,86,-99.99,,,0.00,weatherlink.com 1.10,2013-08-18 00:49:00,
2013-08-17 21:04:00,68.0,64.0,30.27,West,263,0.0,-999.0,87,-99.99,,,0.00,weatherlink.com 1.10,2013-08-18 01:04:00,
2013-08-17 21:19:00,67.3,64.0,30.27,West,263,0.0,-999.0,88,-99.99,,,0.00,weatherlink.com 1.10,2013-08-18 01:19:00,
2013-08-17 21:34:00,66.6,64.0,30.28,West,263,0.0,-999.0,90,-99.99,,,0.00,weatherlink.com 1.10,2013-08-18 01:34:00,
2013-08-17 21:49:00,66.0,63.0,30.27,West,263,0.0,-999.0,91,-99.99,,,0.00,weatherlink.com 1.10,2013-08-18 01:49:00,
2013-08-17 22:04:00,65.6,63.0,30.27,West,263,0.0,-999.0,91,-99.99,,,0.00,weatherlink.com 1.10,2013-08-18 02:04:00,